Time,TemperatureF,DewpointF,PressureIn,WindDirection,WindDirectionDegrees,WindSpeedMPH,WindSpeedGustMPH,Humidity,HourlyPrecipIn,Conditions,Clouds,dailyrainin,SoftwareType,DateUTC
2013-05-14 00:01:00,56.7,54.4,30.14,SW,235,0.0,0.0,92,0.00,,---,0.00,VWS V14.01,2013-05-14 05:01:00,
2013-05-14 00:06:00,56.7,54.1,30.13,SW,235,0.0,0.0,91,0.00,,---,0.00,VWS V14.01,2013-05-14 05:06:00,
2013-05-14 00:11:00,56.5,53.9,30.13,SW,235,0.0,0.0,91,0.00,,---,0.00,VWS V14.01,2013-05-14 05:11:00,
2013-05-14 00:16:00,56.4,54.1,30.14,SW,235,0.0,0.0,92,0.00,,---,0.00,VWS V14.01,2013-05-14 05:16:00,
2013-05-14 00:21:00,56.3,54.0,30.14,SW,235,0.0,0.0,92,0.00,,---,0.00,VWS V14.01,2013-05-14 05:21:00,
2013-05-14 00:26:00,56.2,53.9,30.13,SW,235,0.0,0.0,92,0.00,,---,0.00,VWS V14.01,2013-05-14 05:26:00,
2013-05-14 00:31:00,56.0,53.7,30.13,SW,235,0.0,0.0,92,0.00,,---,0.00,VWS V14.01,2013-05-14 05:31:00,
2013-05-14 00:36:00,55.9,53.3,30.13,SW,235,0.0,0.0,91,0.00,,---,0.00,VWS V14.01,2013-05-14 05:36:00,
2013-05-14 00:41:00,55.7,53.1,30.14,SW,235,0.0,0.0,91,0.00,,---,0.00,VWS V14.01,2013-05-14 05:41:00,
2013-05-14 00:46:00,55.5,53.2,30.14,SW,235,0.0,0.0,92,0.00,,---,0.00,VWS V14.01,2013-05-14 05:46:00,
2013-05-14 00:51:00,55.5,53.2,30.14,SW,235,0.0,0.0,92,0.00,,---,0.00,VWS V14.01,2013-05-14 05:51:00,
2013-05-14 00:56:00,55.6,53.3,30.14,SW,235,0.0,0.0,92,0.00,,---,0.00,VWS V14.01,2013-05-14 05:56:00,
2013-05-14 01:01:00,55.7,53.7,30.14,SW,235,0.0,0.0,93,0.00,,---,0.00,VWS V14.01,2013-05-14 06:01:00,
2013-05-14 01:06:00,55.7,53.7,30.14,SW,235,0.0,0.0,93,0.00,,---,0.00,VWS V14.01,2013-05-14 06:06:00,
2013-05-14 01:11:00,55.7,53.7,30.14,SW,235,0.0,0.0,93,0.00,,---,0.00,VWS V14.01,2013-05-14 06:11:00,
2013-05-14 01:16:00,55.7,53.7,30.14,SW,235,0.0,0.0,93,0.00,,---,0.00,VWS V14.01,2013-05-14 06:16:00,
2013-05-14 01:21:00,55.7,53.7,30.14,SW,235,0.0,0.0,93,0.00,,---,0.00,VWS V14.01,2013-05-14 06:21:00,
2013-05-14 01:26:00,55.7,53.7,30.14,SW,235,0.0,0.0,93,0.00,,---,0.00,VWS V14.01,2013-05-14 06:26:00,
2013-05-14 01:31:00,55.7,53.7,30.13,SW,235,0.0,0.0,93,0.00,,---,0.00,VWS V14.01,2013-05-14 06:31:00,
2013-05-14 01:36:00,55.7,53.7,30.13,SW,235,0.0,0.0,93,0.00,,---,0.00,VWS V14.01,2013-05-14 06:36:00,
2013-05-14 01:41:00,55.7,53.7,30.13,SW,235,0.0,0.0,93,0.00,,---,0.00,VWS V14.01,2013-05-14 06:41:00,
2013-05-14 01:46:00,55.8,53.8,30.13,SW,235,0.0,0.0,93,0.00,,---,0.00,VWS V14.01,2013-05-14 06:46:00,
2013-05-14 01:51:00,55.9,53.9,30.13,SW,235,0.0,0.0,93,0.00,,---,0.00,VWS V14.01,2013-05-14 06:51:00,
2013-05-14 01:56:00,55.8,53.8,30.13,SW,235,0.0,0.0,93,0.00,,---,0.00,VWS V14.01,2013-05-14 06:56:00,
2013-05-14 02:01:00,55.7,53.7,30.13,SW,235,0.0,0.0,93,0.00,,---,0.00,VWS V14.01,2013-05-14 07:01:00,
2013-05-14 02:06:00,55.6,53.6,30.13,SW,235,0.0,0.0,93,0.00,,---,0.00,VWS V14.01,2013-05-14 07:06:00,
2013-05-14 02:11:00,55.6,53.6,30.13,SW,235,0.0,0.0,93,0.00,,---,0.00,VWS V14.01,2013-05-14 07:11:00,
2013-05-14 02:16:00,55.7,53.7,30.13,SW,235,0.0,0.0,93,0.00,,---,0.00,VWS V14.01,2013-05-14 07:16:00,
2013-05-14 02:21:00,55.6,53.6,30.14,SW,235,0.0,0.0,93,0.00,,---,0.00,VWS V14.01,2013-05-14 07:21:00,
2013-05-14 02:26:00,55.7,53.7,30.14,SW,235,0.0,0.0,93,0.00,,---,0.00,VWS V14.01,2013-05-14 07:26:00,
2013-05-14 02:31:00,55.7,53.7,30.14,SW,235,0.0,0.0,93,0.00,,---,0.00,VWS V14.01,2013-05-14 07:31:00,
2013-05-14 02:36:00,55.8,53.8,30.14,SW,235,0.0,0.0,93,0.00,,---,0.00,VWS V14.01,2013-05-14 07:36:00,
2013-05-14 02:41:00,55.7,53.7,30.14,SW,235,0.0,0.0,93,0.00,,---,0.00,VWS V14.01,2013-05-14 07:41:00,
2013-05-14 02:46:00,55.7,53.7,30.14,SW,235,0.0,0.0,93,0.00,,---,0.00,VWS V14.01,2013-05-14 07:46:00,
2013-05-14 02:51:00,55.6,53.6,30.14,SW,235,0.0,0.0,93,0.00,,---,0.00,VWS V14.01,2013-05-14 07:51:00,
2013-05-14 02:56:00,55.6,53.9,30.14,SW,235,0.0,0.0,94,0.00,,---,0.00,VWS V14.01,2013-05-14 07:56:00,
2013-05-14 03:01:00,55.7,54.0,30.14,SW,235,0.0,1.0,94,0.00,,---,0.00,VWS V14.01,2013-05-14 08:01:00,
2013-05-14 03:06:00,55.6,53.6,30.14,SW,235,0.0,1.0,93,0.00,,---,0.00,VWS V14.01,2013-05-14 08:06:00,
2013-05-14 03:11:00,55.5,53.5,30.14,SW,235,0.0,1.0,93,0.00,,---,0.00,VWS V14.01,2013-05-14 08:11:00,
2013-05-14 03:16:00,55.4,53.4,30.14,SW,235,0.0,1.0,93,0.00,,---,0.00,VWS V14.01,2013-05-14 08:16:00,
2013-05-14 03:21:00,55.3,53.6,30.15,SW,235,0.0,1.0,94,0.00,,---,0.00,VWS V14.01,2013-05-14 08:21:00,
2013-05-14 03:26:00,55.3,53.6,30.14,SW,235,0.0,1.0,94,0.00,,---,0.00,VWS V14.01,2013-05-14 08:26:00,
2013-05-14 03:31:00,55.3,53.6,30.14,SW,235,0.0,0.0,94,0.00,,---,0.00,VWS V14.01,2013-05-14 08:31:00,
2013-05-14 03:36:00,55.2,53.2,30.14,SW,235,0.0,0.0,93,0.00,,---,0.00,VWS V14.01,2013-05-14 08:36:00,
2013-05-14 03:41:00,55.2,53.2,30.14,SW,235,0.0,0.0,93,0.00,,---,0.00,VWS V14.01,2013-05-14 08:41:00,
2013-05-14 03:46:00,55.1,53.1,30.14,SW,235,0.0,0.0,93,0.00,,---,0.00,VWS V14.01,2013-05-14 08:46:00,
2013-05-14 03:51:00,55.1,53.1,30.14,SW,235,0.0,0.0,93,0.00,,---,0.00,VWS V14.01,2013-05-14 08:51:00,
2013-05-14 03:56:00,55.0,53.0,30.14,SW,235,0.0,0.0,93,0.00,,---,0.00,VWS V14.01,2013-05-14 08:56:00,
2013-05-14 04:01:00,55.0,53.0,30.14,SW,235,0.0,0.0,93,0.00,,---,0.00,VWS V14.01,2013-05-14 09:01:00,
2013-05-14 04:06:00,54.9,52.9,30.14,SW,235,0.0,0.0,93,0.00,,---,0.00,VWS V14.01,2013-05-14 09:06:00,
2013-05-14 04:11:00,54.9,52.9,30.14,SW,235,0.0,0.0,93,0.00,,---,0.00,VWS V14.01,2013-05-14 09:11:00,
2013-05-14 04:16:00,54.8,52.8,30.14,SW,235,0.0,0.0,93,0.00,,---,0.00,VWS V14.01,2013-05-14 09:16:00,
2013-05-14 04:21:00,54.7,52.7,30.14,SW,235,0.0,0.0,93,0.00,,---,0.00,VWS V14.01,2013-05-14 09:21:00,
2013-05-14 04:26:00,54.6,52.6,30.14,SW,235,0.0,0.0,93,0.00,,---,0.00,VWS V14.01,2013-05-14 09:26:00,
2013-05-14 04:31:00,54.5,52.5,30.14,SW,235,0.0,0.0,93,0.00,,---,0.00,VWS V14.01,2013-05-14 09:31:00,
2013-05-14 04:36:00,54.4,52.4,30.14,SW,235,0.0,0.0,93,0.00,,---,0.00,VWS V14.01,2013-05-14 09:36:00,
2013-05-14 04:41:00,54.4,52.4,30.14,SW,235,0.0,0.0,93,0.00,,---,0.00,VWS V14.01,2013-05-14 09:41:00,
2013-05-14 04:46:00,54.3,52.3,30.14,SW,235,0.0,0.0,93,0.00,,---,0.00,VWS V14.01,2013-05-14 09:46:00,
2013-05-14 04:51:00,54.3,52.3,30.14,SW,235,0.0,0.0,93,0.00,,---,0.00,VWS V14.01,2013-05-14 09:51:00,
2013-05-14 04:56:00,54.2,52.2,30.14,SW,235,0.0,0.0,93,0.00,,---,0.00,VWS V14.01,2013-05-14 09:56:00,
2013-05-14 05:01:00,54.1,52.1,30.14,SW,235,0.0,0.0,93,0.00,,---,0.00,VWS V14.01,2013-05-14 10:01:00,
2013-05-14 05:06:00,53.9,51.9,30.14,SW,235,0.0,0.0,93,0.00,,---,0.00,VWS V14.01,2013-05-14 10:06:00,
2013-05-14 05:11:00,53.7,51.7,30.15,SW,235,0.0,0.0,93,0.00,,---,0.00,VWS V14.01,2013-05-14 10:11:00,
2013-05-14 05:16:00,53.5,51.5,30.15,SW,235,0.0,0.0,93,0.00,,---,0.00,VWS V14.01,2013-05-14 10:16:00,
2013-05-14 05:21:00,53.3,51.3,30.15,SW,235,0.0,0.0,93,0.00,,---,0.00,VWS V14.01,2013-05-14 10:21:00,
2013-05-14 05:26:00,53.2,51.2,30.15,SW,235,0.0,0.0,93,0.00,,---,0.00,VWS V14.01,2013-05-14 10:26:00,
2013-05-14 05:31:00,53.1,51.1,30.15,SW,235,0.0,0.0,93,0.00,,---,0.00,VWS V14.01,2013-05-14 10:31:00,
2013-05-14 05:36:00,53.1,51.1,30.15,SW,235,0.0,0.0,93,0.00,,---,0.00,VWS V14.01,2013-05-14 10:36:00,
2013-05-14 05:41:00,53.0,51.0,30.16,SW,235,0.0,0.0,93,0.00,,---,0.00,VWS V14.01,2013-05-14 10:41:00,
2013-05-14 05:46:00,52.9,50.9,30.16,SW,235,0.0,0.0,93,0.00,,---,0.00,VWS V14.01,2013-05-14 10:46:00,
2013-05-14 05:51:00,52.8,51.1,30.16,SW,235,0.0,0.0,94,0.00,,---,0.00,VWS V14.01,2013-05-14 10:51:00,
2013-05-14 05:56:00,52.8,51.1,30.16,SW,235,0.0,0.0,94,0.00,,---,0.00,VWS V14.01,2013-05-14 10:56:00,
2013-05-14 06:01:00,52.8,51.1,30.16,SW,235,0.0,0.0,94,0.00,,---,0.00,VWS V14.01,2013-05-14 11:01:00,
2013-05-14 06:06:00,52.8,51.1,30.16,SW,235,0.0,0.0,94,0.00,,---,0.00,VWS V14.01,2013-05-14 11:06:00,
2013-05-14 06:11:00,52.8,51.1,30.16,SW,235,0.0,0.0,94,0.00,,---,0.00,VWS V14.01,2013-05-14 11:11:00,
2013-05-14 06:16:00,52.8,51.1,30.17,SW,235,0.0,0.0,94,0.00,,---,0.00,VWS V14.01,2013-05-14 11:16:00,
2013-05-14 06:21:00,52.8,51.1,30.17,SW,235,0.0,0.0,94,0.00,,---,0.00,VWS V14.01,2013-05-14 11:21:00,
2013-05-14 06:26:00,52.9,51.2,30.17,WSW,240,0.0,0.0,94,0.00,,---,0.00,VWS V14.01,2013-05-14 11:26:00,
2013-05-14 06:31:00,53.2,51.8,30.17,ESE,119,0.0,0.0,95,0.00,,---,0.00,VWS V14.01,2013-05-14 11:31:00,
2013-05-14 06:36:00,53.6,52.2,30.17,ESE,119,0.0,0.0,95,0.00,,---,0.00,VWS V14.01,2013-05-14 11:36:00,
2013-05-14 06:41:00,54.1,52.7,30.17,ESE,119,0.0,0.0,95,0.00,,---,0.00,VWS V14.01,2013-05-14 11:41:00,
2013-05-14 06:46:00,54.4,53.0,30.17,ESE,119,0.0,0.0,95,0.00,,---,0.00,VWS V14.01,2013-05-14 11:46:00,
2013-05-14 06:51:00,54.7,53.3,30.18,ESE,120,0.0,0.0,95,0.00,,---,0.00,VWS V14.01,2013-05-14 11:51:00,
2013-05-14 06:56:00,55.3,53.9,30.18,SE,142,0.0,0.0,95,0.00,,---,0.00,VWS V14.01,2013-05-14 11:56:00,
2013-05-14 07:01:00,56.0,54.9,30.18,SE,142,0.0,0.0,96,0.00,,---,0.00,VWS V14.01,2013-05-14 12:01:00,
2013-05-14 07:06:00,56.6,55.2,30.18,SE,142,0.0,0.0,95,0.00,,---,0.00,VWS V14.01,2013-05-14 12:06:00,
2013-05-14 07:11:00,56.7,55.0,30.18,SE,142,0.0,0.0,94,0.00,,---,0.00,VWS V14.01,2013-05-14 12:11:00,
2013-05-14 07:16:00,57.3,55.9,30.18,SE,142,0.0,0.0,95,0.00,,---,0.00,VWS V14.01,2013-05-14 12:16:00,
2013-05-14 07:21:00,58.3,56.9,30.18,SE,142,0.0,0.0,95,0.00,,---,0.00,VWS V14.01,2013-05-14 12:21:00,
2013-05-14 07:26:00,59.0,57.6,30.18,NNE,20,0.0,0.0,95,0.00,,---,0.00,VWS V14.01,2013-05-14 12:26:00,
2013-05-14 07:31:00,59.9,58.5,30.19,NNW,338,0.0,0.0,95,0.00,,---,0.00,VWS V14.01,2013-05-14 12:31:00,
2013-05-14 07:36:00,61.0,59.3,30.19,NW,311,0.0,0.0,94,0.00,,---,0.00,VWS V14.01,2013-05-14 12:36:00,
2013-05-14 07:41:00,61.8,58.5,30.19,NW,311,0.0,0.0,89,0.00,,---,0.00,VWS V14.01,2013-05-14 12:41:00,
2013-05-14 07:46:00,62.7,59.1,30.19,NW,311,0.0,0.0,88,0.00,,---,0.00,VWS V14.01,2013-05-14 12:46:00,
2013-05-14 07:51:00,63.6,58.7,30.19,NW,311,0.0,1.0,84,0.00,,---,0.00,VWS V14.01,2013-05-14 12:51:00,
2013-05-14 07:56:00,64.5,58.9,30.19,NW,311,0.0,1.0,82,0.00,,---,0.00,VWS V14.01,2013-05-14 12:56:00,
2013-05-14 08:01:00,65.3,59.0,30.19,NW,311,0.0,0.0,80,0.00,,---,0.00,VWS V14.01,2013-05-14 13:01:00,
2013-05-14 08:06:00,66.1,58.7,30.19,NW,311,1.0,2.0,77,0.00,,---,0.00,VWS V14.01,2013-05-14 13:06:00,
2013-05-14 08:11:00,66.6,58.8,30.19,NW,321,0.0,3.0,76,0.00,,---,0.00,VWS V14.01,2013-05-14 13:11:00,
2013-05-14 08:16:00,67.1,58.9,30.19,NW,325,2.0,3.0,75,0.00,,---,0.00,VWS V14.01,2013-05-14 13:16:00,
2013-05-14 08:21:00,67.5,59.3,30.19,NNW,327,0.0,4.0,75,0.00,,---,0.00,VWS V14.01,2013-05-14 13:21:00,
2013-05-14 08:26:00,67.9,59.3,30.20,NNW,346,5.0,5.0,74,0.00,,---,0.00,VWS V14.01,2013-05-14 13:26:00,
2013-05-14 08:31:00,68.1,58.7,30.20,North,355,4.0,5.0,72,0.00,,---,0.00,VWS V14.01,2013-05-14 13:31:00,
2013-05-14 08:36:00,68.4,58.2,30.20,North,355,5.0,5.0,70,0.00,,---,0.00,VWS V14.01,2013-05-14 13:36:00,
2013-05-14 08:41:00,68.5,59.1,30.20,NNW,347,2.0,5.0,72,0.00,,---,0.00,VWS V14.01,2013-05-14 13:41:00,
2013-05-14 08:46:00,68.8,59.4,30.20,NNW,338,3.0,5.0,72,0.00,,---,0.00,VWS V14.01,2013-05-14 13:46:00,
2013-05-14 08:51:00,69.1,59.3,30.20,NW,321,0.0,5.0,71,0.00,,---,0.00,VWS V14.01,2013-05-14 13:51:00,
2013-05-14 08:56:00,69.3,59.9,30.21,WNW,300,0.0,5.0,72,0.00,,---,0.00,VWS V14.01,2013-05-14 13:56:00,
2013-05-14 09:01:00,69.6,59.8,30.21,NW,323,1.0,4.0,71,0.00,,---,0.00,VWS V14.01,2013-05-14 14:01:00,
2013-05-14 09:06:00,70.0,59.8,30.21,NW,305,2.0,6.0,70,0.00,,---,0.00,VWS V14.01,2013-05-14 14:06:00,
2013-05-14 09:11:00,70.3,59.7,30.21,NNW,339,4.0,7.0,69,0.00,,---,0.00,VWS V14.01,2013-05-14 14:11:00,
2013-05-14 09:16:00,70.6,58.7,30.21,NNW,337,7.0,8.0,66,0.00,,---,0.00,VWS V14.01,2013-05-14 14:16:00,
2013-05-14 09:21:00,70.8,58.5,30.21,NW,325,3.0,8.0,65,0.00,,---,0.00,VWS V14.01,2013-05-14 14:21:00,
2013-05-14 09:26:00,71.1,58.3,30.21,NNW,340,6.0,8.0,64,0.00,,---,0.00,VWS V14.01,2013-05-14 14:26:00,
2013-05-14 09:31:00,71.5,58.7,30.21,NNW,335,0.0,4.0,64,0.00,,---,0.00,VWS V14.01,2013-05-14 14:31:00,
2013-05-14 09:36:00,71.9,57.7,30.21,North,350,4.0,6.0,61,0.00,,---,0.00,VWS V14.01,2013-05-14 14:36:00,
2013-05-14 09:41:00,72.1,56.5,30.21,NNW,338,3.0,6.0,58,0.00,,---,0.00,VWS V14.01,2013-05-14 14:41:00,
2013-05-14 09:46:00,72.5,57.4,30.21,North,350,0.0,6.0,59,0.00,,---,0.00,VWS V14.01,2013-05-14 14:46:00,
2013-05-14 09:52:00,73.0,56.9,30.21,North,349,2.0,6.0,57,0.00,,---,0.00,VWS V14.01,2013-05-14 14:52:00,
2013-05-14 09:57:00,73.5,57.8,30.21,NNW,332,3.0,6.0,58,0.00,,---,0.00,VWS V14.01,2013-05-14 14:57:00,
2013-05-14 10:02:00,73.6,57.0,30.21,NW,309,0.0,4.0,56,0.00,,---,0.00,VWS V14.01,2013-05-14 15:02:00,
2013-05-14 10:07:00,73.8,56.6,30.21,NNW,342,0.0,5.0,55,0.00,,---,0.00,VWS V14.01,2013-05-14 15:07:00,
2013-05-14 10:12:00,74.3,57.1,30.21,East,95,1.0,5.0,55,0.00,,---,0.00,VWS V14.01,2013-05-14 15:12:00,
2013-05-14 10:17:00,74.7,57.0,30.21,South,178,3.0,5.0,54,0.00,,---,0.00,VWS V14.01,2013-05-14 15:17:00,
2013-05-14 10:22:00,75.0,57.8,30.22,South,190,4.0,5.0,55,0.00,,---,0.00,VWS V14.01,2013-05-14 15:22:00,
2013-05-14 10:27:00,75.2,56.9,30.21,SW,231,0.0,6.0,53,0.00,,---,0.00,VWS V14.01,2013-05-14 15:27:00,
2013-05-14 10:32:00,75.4,56.0,30.22,SW,222,3.0,4.0,51,0.00,,---,0.00,VWS V14.01,2013-05-14 15:32:00,
2013-05-14 10:37:00,75.8,56.9,30.22,South,191,2.0,4.0,52,0.00,,---,0.00,VWS V14.01,2013-05-14 15:37:00,
2013-05-14 10:42:00,76.3,57.4,30.21,South,190,0.0,4.0,52,0.00,,---,0.00,VWS V14.01,2013-05-14 15:42:00,
2013-05-14 10:47:00,76.4,55.8,30.21,South,188,0.0,5.0,49,0.00,,---,0.00,VWS V14.01,2013-05-14 15:47:00,
2013-05-14 10:52:00,76.6,57.1,30.21,South,188,0.0,5.0,51,0.00,,---,0.00,VWS V14.01,2013-05-14 15:52:00,
2013-05-14 10:57:00,77.5,56.9,30.21,South,176,1.0,5.0,49,0.00,,---,0.00,VWS V14.01,2013-05-14 15:57:00,
2013-05-14 11:02:00,77.9,57.2,30.21,South,176,1.0,3.0,49,0.00,,---,0.00,VWS V14.01,2013-05-14 16:02:00,
2013-05-14 11:07:00,77.9,57.2,30.22,SSW,209,1.0,4.0,49,0.00,,---,0.00,VWS V14.01,2013-05-14 16:07:00,
2013-05-14 11:12:00,77.8,57.1,30.21,SSW,207,2.0,4.0,49,0.00,,---,0.00,VWS V14.01,2013-05-14 16:12:00,
2013-05-14 11:17:00,77.8,56.6,30.22,South,185,3.0,4.0,48,0.00,,---,0.00,VWS V14.01,2013-05-14 16:17:00,
2013-05-14 11:22:00,77.6,55.2,30.21,SW,231,2.0,10.0,46,0.00,,---,0.00,VWS V14.01,2013-05-14 16:22:00,
2013-05-14 11:27:00,77.6,54.6,30.21,SW,230,0.0,10.0,45,0.00,,---,0.00,VWS V14.01,2013-05-14 16:27:00,
2013-05-14 11:32:00,78.0,54.3,30.21,SW,227,1.0,2.0,44,0.00,,---,0.00,VWS V14.01,2013-05-14 16:32:00,
2013-05-14 11:37:00,78.7,55.0,30.21,SW,225,2.0,2.0,44,0.00,,---,0.00,VWS V14.01,2013-05-14 16:37:00,
2013-05-14 11:42:00,78.9,54.5,30.21,South,190,3.0,4.0,43,0.00,,---,0.00,VWS V14.01,2013-05-14 16:42:00,
2013-05-14 11:47:00,78.5,54.2,30.21,ESE,119,2.0,4.0,43,0.00,,---,0.00,VWS V14.01,2013-05-14 16:47:00,
2013-05-14 11:52:00,78.7,55.0,30.21,ESE,119,0.0,4.0,44,0.00,,---,0.00,VWS V14.01,2013-05-14 16:52:00,
2013-05-14 11:57:00,79.2,54.8,30.21,ESE,117,3.0,4.0,43,0.00,,---,0.00,VWS V14.01,2013-05-14 16:57:00,
2013-05-14 12:02:00,79.2,55.4,30.20,SSW,196,3.0,9.0,44,0.00,,---,0.00,VWS V14.01,2013-05-14 17:02:00,
2013-05-14 12:07:00,79.1,55.3,30.20,South,190,3.0,9.0,44,0.00,,---,0.00,VWS V14.01,2013-05-14 17:07:00,
2013-05-14 12:12:00,78.9,56.4,30.20,South,189,3.0,9.0,46,0.00,,---,0.00,VWS V14.01,2013-05-14 17:12:00,
2013-05-14 12:17:00,78.7,54.3,30.20,South,190,5.0,9.0,43,0.00,,---,0.00,VWS V14.01,2013-05-14 17:17:00,
2013-05-14 12:22:00,78.6,55.5,30.20,South,176,5.0,11.0,45,0.00,,---,0.00,VWS V14.01,2013-05-14 17:22:00,
2013-05-14 12:27:00,78.5,55.4,30.19,SSE,155,2.0,11.0,45,0.00,,---,0.00,VWS V14.01,2013-05-14 17:27:00,
2013-05-14 12:32:00,78.6,54.9,30.19,South,180,5.0,7.0,44,0.00,,---,0.00,VWS V14.01,2013-05-14 17:32:00,
2013-05-14 12:37:00,78.6,54.3,30.19,SSW,196,3.0,7.0,43,0.00,,---,0.00,VWS V14.01,2013-05-14 17:37:00,
2013-05-14 12:42:00,78.6,55.5,30.19,SE,137,2.0,9.0,45,0.00,,---,0.00,VWS V14.01,2013-05-14 17:42:00,
2013-05-14 12:47:00,78.6,55.5,30.19,SW,232,5.0,14.0,45,0.00,,---,0.00,VWS V14.01,2013-05-14 17:47:00,
2013-05-14 12:52:00,78.8,56.3,30.19,SW,215,2.0,14.0,46,0.00,,---,0.00,VWS V14.01,2013-05-14 17:52:00,
2013-05-14 12:57:00,78.8,55.7,30.18,South,187,5.0,14.0,45,0.00,,---,0.00,VWS V14.01,2013-05-14 17:57:00,
2013-05-14 13:02:00,78.4,55.3,30.18,SW,236,1.0,10.0,45,0.00,,---,0.00,VWS V14.01,2013-05-14 18:02:00,
2013-05-14 13:07:00,78.5,55.4,30.18,SW,223,6.0,13.0,45,0.00,,---,0.00,VWS V14.01,2013-05-14 18:07:00,
2013-05-14 13:12:00,78.4,55.3,30.18,WSW,254,7.0,13.0,45,0.00,,---,0.00,VWS V14.01,2013-05-14 18:12:00,
2013-05-14 13:17:00,78.3,55.8,30.18,SW,227,2.0,13.0,46,0.00,,---,0.00,VWS V14.01,2013-05-14 18:17:00,
2013-05-14 13:22:00,78.3,55.8,30.17,SW,236,2.0,13.0,46,0.00,,---,0.00,VWS V14.01,2013-05-14 18:22:00,
2013-05-14 13:27:00,78.4,55.9,30.17,SSW,205,3.0,13.0,46,0.00,,---,0.00,VWS V14.01,2013-05-14 18:27:00,
2013-05-14 13:32:00,78.4,56.5,30.17,SW,214,5.0,6.0,47,0.00,,---,0.00,VWS V14.01,2013-05-14 18:32:00,
2013-05-14 13:37:00,78.6,56.7,30.16,SSW,203,0.0,7.0,47,0.00,,---,0.00,VWS V14.01,2013-05-14 18:37:00,
2013-05-14 13:42:00,79.0,57.7,30.16,SSW,202,6.0,11.0,48,0.00,,---,0.00,VWS V14.01,2013-05-14 18:42:00,
2013-05-14 13:47:00,78.9,58.1,30.16,SW,230,0.0,11.0,49,0.00,,---,0.00,VWS V14.01,2013-05-14 18:47:00,
2013-05-14 13:52:00,78.8,57.5,30.16,SSE,167,4.0,11.0,48,0.00,,---,0.00,VWS V14.01,2013-05-14 18:52:00,
2013-05-14 13:57:00,78.7,56.8,30.15,South,182,4.0,11.0,47,0.00,,---,0.00,VWS V14.01,2013-05-14 18:57:00,
2013-05-14 14:02:00,78.6,56.7,30.15,South,178,3.0,10.0,47,0.00,,---,0.00,VWS V14.01,2013-05-14 19:02:00,
2013-05-14 14:07:00,78.2,55.8,30.15,SW,236,4.0,12.0,46,0.00,,---,0.00,VWS V14.01,2013-05-14 19:07:00,
2013-05-14 14:12:00,78.0,56.2,30.15,SW,226,6.0,12.0,47,0.00,,---,0.00,VWS V14.01,2013-05-14 19:12:00,
2013-05-14 14:17:00,77.9,55.5,30.15,South,191,2.0,14.0,46,0.00,,---,0.00,VWS V14.01,2013-05-14 19:17:00,
2013-05-14 14:22:00,77.7,55.9,30.15,SW,229,4.0,14.0,47,0.00,,---,0.00,VWS V14.01,2013-05-14 19:22:00,
2013-05-14 14:27:00,77.5,56.3,30.15,SSE,158,7.0,14.0,48,0.00,,---,0.00,VWS V14.01,2013-05-14 19:27:00,
2013-05-14 14:32:00,77.4,56.8,30.15,SSW,207,0.0,11.0,49,0.00,,---,0.00,VWS V14.01,2013-05-14 19:32:00,
2013-05-14 14:37:00,77.6,56.4,30.14,SSW,210,4.0,11.0,48,0.00,,---,0.00,VWS V14.01,2013-05-14 19:37:00,
2013-05-14 14:42:00,77.8,56.6,30.14,West,275,6.0,13.0,48,0.00,,---,0.00,VWS V14.01,2013-05-14 19:42:00,
2013-05-14 14:47:00,77.5,57.4,30.14,SW,233,7.0,13.0,50,0.00,,---,0.00,VWS V14.01,2013-05-14 19:47:00,
2013-05-14 14:52:00,77.3,57.8,30.14,SSE,167,9.0,13.0,51,0.00,,---,0.00,VWS V14.01,2013-05-14 19:52:00,
2013-05-14 14:57:00,77.3,57.2,30.14,SSW,213,6.0,13.0,50,0.00,,---,0.00,VWS V14.01,2013-05-14 19:57:00,
2013-05-14 15:02:00,77.2,58.2,30.14,SSW,209,9.0,12.0,52,0.00,,---,0.00,VWS V14.01,2013-05-14 20:02:00,
2013-05-14 15:07:00,77.1,57.6,30.13,SW,233,4.0,14.0,51,0.00,,---,0.00,VWS V14.01,2013-05-14 20:07:00,
2013-05-14 15:12:00,76.9,58.5,30.13,SW,234,6.0,14.0,53,0.00,,---,0.00,VWS V14.01,2013-05-14 20:12:00,
2013-05-14 15:17:00,76.8,57.9,30.13,ESE,119,3.0,14.0,52,0.00,,---,0.00,VWS V14.01,2013-05-14 20:17:00,
2013-05-14 15:22:00,76.9,59.5,30.13,SW,218,6.0,14.0,55,0.00,,---,0.00,VWS V14.01,2013-05-14 20:22:00,
2013-05-14 15:27:00,77.2,59.3,30.13,West,275,6.0,14.0,54,0.00,,---,0.00,VWS V14.01,2013-05-14 20:27:00,
2013-05-14 15:32:00,77.0,58.0,30.13,South,188,12.0,12.0,52,0.00,,---,0.00,VWS V14.01,2013-05-14 20:32:00,
2013-05-14 15:37:00,76.7,58.3,30.13,South,175,5.0,12.0,53,0.00,,---,0.00,VWS V14.01,2013-05-14 20:37:00,
2013-05-14 15:42:00,76.5,58.1,30.12,South,182,4.0,12.0,53,0.00,,---,0.00,VWS V14.01,2013-05-14 20:42:00,
2013-05-14 15:47:00,76.6,58.7,30.12,WSW,250,6.0,12.0,54,0.00,,---,0.00,VWS V14.01,2013-05-14 20:47:00,
2013-05-14 15:52:00,76.6,60.2,30.12,SSW,210,1.0,12.0,57,0.00,,---,0.00,VWS V14.01,2013-05-14 20:52:00,
2013-05-14 15:57:00,76.6,60.7,30.12,SSW,202,5.0,12.0,58,0.00,,---,0.00,VWS V14.01,2013-05-14 20:57:00,
2013-05-14 16:02:00,76.5,59.7,30.12,SSW,202,1.0,13.0,56,0.00,,---,0.00,VWS V14.01,2013-05-14 21:02:00,
2013-05-14 16:07:00,76.6,60.2,30.12,WSW,257,3.0,14.0,57,0.00,,---,0.00,VWS V14.01,2013-05-14 21:07:00,
2013-05-14 16:12:00,76.4,58.5,30.12,SSE,163,4.0,14.0,54,0.00,,---,0.00,VWS V14.01,2013-05-14 21:12:00,
2013-05-14 16:17:00,76.2,59.9,30.12,SSW,209,3.0,14.0,57,0.00,,---,0.00,VWS V14.01,2013-05-14 21:17:00,
2013-05-14 16:22:00,75.9,59.6,30.12,SW,219,2.0,14.0,57,0.00,,---,0.00,VWS V14.01,2013-05-14 21:22:00,
2013-05-14 16:27:00,75.8,60.5,30.12,WSW,240,5.0,14.0,59,0.00,,---,0.00,VWS V14.01,2013-05-14 21:27:00,
2013-05-14 16:32:00,75.8,60.0,30.12,SSW,204,6.0,12.0,58,0.00,,---,0.00,VWS V14.01,2013-05-14 21:32:00,
2013-05-14 16:37:00,75.7,59.4,30.12,South,176,8.0,13.0,57,0.00,,---,0.00,VWS V14.01,2013-05-14 21:37:00,
2013-05-14 16:42:00,75.6,59.8,30.12,SW,219,3.0,13.0,58,0.00,,---,0.00,VWS V14.01,2013-05-14 21:42:00,
2013-05-14 16:47:00,75.6,60.3,30.11,ESE,121,4.0,13.0,59,0.00,,---,0.00,VWS V14.01,2013-05-14 21:47:00,
2013-05-14 16:52:00,75.7,60.4,30.11,SSW,203,0.0,13.0,59,0.00,,---,0.00,VWS V14.01,2013-05-14 21:52:00,
2013-05-14 16:57:00,75.9,60.1,30.11,SSW,210,0.0,13.0,58,0.00,,---,0.00,VWS V14.01,2013-05-14 21:57:00,
2013-05-14 17:02:00,76.0,60.2,30.11,SW,232,5.0,11.0,58,0.00,,---,0.00,VWS V14.01,2013-05-14 22:02:00,
2013-05-14 17:07:00,75.5,60.7,30.11,SW,218,2.0,11.0,60,0.00,,---,0.00,VWS V14.01,2013-05-14 22:07:00,
2013-05-14 17:12:00,75.4,61.0,30.11,SSW,193,0.0,12.0,61,0.00,,---,0.00,VWS V14.01,2013-05-14 22:12:00,
2013-05-14 17:17:00,75.6,61.7,30.11,South,179,3.0,12.0,62,0.00,,---,0.00,VWS V14.01,2013-05-14 22:17:00,
2013-05-14 17:22:00,75.3,60.9,30.11,SSW,195,0.0,12.0,61,0.00,,---,0.00,VWS V14.01,2013-05-14 22:22:00,
2013-05-14 17:27:00,75.3,61.8,30.11,SSW,205,2.0,12.0,63,0.00,,---,0.00,VWS V14.01,2013-05-14 22:27:00,
2013-05-14 17:32:00,75.1,60.8,30.11,SSE,154,4.0,11.0,61,0.00,,---,0.00,VWS V14.01,2013-05-14 22:32:00,
2013-05-14 17:37:00,74.9,61.0,30.11,South,186,10.0,12.0,62,0.00,,---,0.00,VWS V14.01,2013-05-14 22:37:00,
2013-05-14 17:42:00,74.7,60.8,30.11,SW,224,7.0,13.0,62,0.00,,---,0.00,VWS V14.01,2013-05-14 22:42:00,
2013-05-14 17:47:00,74.6,61.2,30.11,SSW,203,13.0,14.0,63,0.00,,---,0.00,VWS V14.01,2013-05-14 22:47:00,
2013-05-14 17:52:00,74.4,61.0,30.11,SSW,201,6.0,14.0,63,0.00,,---,0.00,VWS V14.01,2013-05-14 22:52:00,
2013-05-14 17:57:00,74.2,61.2,30.11,SW,223,6.0,14.0,64,0.00,,---,0.00,VWS V14.01,2013-05-14 22:57:00,
2013-05-14 18:02:00,74.2,61.7,30.11,SSW,210,6.0,10.0,65,0.00,,---,0.00,VWS V14.01,2013-05-14 23:02:00,
2013-05-14 18:07:00,74.2,61.7,30.11,South,187,4.0,10.0,65,0.00,,---,0.00,VWS V14.01,2013-05-14 23:07:00,
2013-05-14 18:12:00,74.2,61.7,30.10,SSW,193,2.0,12.0,65,0.00,,---,0.00,VWS V14.01,2013-05-14 23:12:00,
2013-05-14 18:17:00,74.1,62.5,30.10,SSW,211,0.0,12.0,67,0.00,,---,0.00,VWS V14.01,2013-05-14 23:17:00,
2013-05-14 18:22:00,74.1,62.0,30.10,SW,223,4.0,12.0,66,0.00,,---,0.00,VWS V14.01,2013-05-14 23:22:00,
2013-05-14 18:27:00,73.9,62.3,30.10,WSW,239,3.0,12.0,67,0.00,,---,0.00,VWS V14.01,2013-05-14 23:27:00,
2013-05-14 18:32:00,73.8,62.6,30.10,West,262,0.0,7.0,68,0.00,,---,0.00,VWS V14.01,2013-05-14 23:32:00,
2013-05-14 18:37:00,73.6,62.4,30.10,WSW,249,0.0,11.0,68,0.00,,---,0.00,VWS V14.01,2013-05-14 23:37:00,
2013-05-14 18:42:00,73.5,62.3,30.10,SSW,202,4.0,11.0,68,0.00,,---,0.00,VWS V14.01,2013-05-14 23:42:00,
2013-05-14 18:47:00,73.3,62.5,30.10,SSW,211,2.0,11.0,69,0.00,,---,0.00,VWS V14.01,2013-05-14 23:47:00,
2013-05-14 18:52:00,73.2,62.8,30.10,SW,221,0.0,11.0,70,0.00,,---,0.00,VWS V14.01,2013-05-14 23:52:00,
2013-05-14 18:57:00,73.1,62.7,30.10,SW,229,2.0,11.0,70,0.00,,---,0.00,VWS V14.01,2013-05-14 23:57:00,
2013-05-14 19:02:00,72.8,62.5,30.10,SSW,209,0.0,9.0,70,0.00,,---,0.00,VWS V14.01,2013-05-15 00:02:00,
2013-05-14 19:07:00,72.5,62.2,30.10,SSW,209,0.0,9.0,70,0.00,,---,0.00,VWS V14.01,2013-05-15 00:07:00,
2013-05-14 19:12:00,72.2,62.3,30.11,SSW,197,0.0,9.0,71,0.00,,---,0.00,VWS V14.01,2013-05-15 00:12:00,
2013-05-14 19:17:00,71.9,62.4,30.10,SSW,197,0.0,9.0,72,0.00,,---,0.00,VWS V14.01,2013-05-15 00:17:00,
2013-05-14 19:22:00,71.6,62.1,30.10,SSW,197,2.0,9.0,72,0.00,,---,0.00,VWS V14.01,2013-05-15 00:22:00,
2013-05-14 19:27:00,71.3,61.8,30.10,SSW,197,1.0,9.0,72,0.00,,---,0.00,VWS V14.01,2013-05-15 00:27:00,
2013-05-14 19:32:00,71.0,61.9,30.10,SSW,197,0.0,1.0,73,0.00,,---,0.00,VWS V14.01,2013-05-15 00:32:00,
2013-05-14 19:37:00,70.7,61.6,30.10,SSW,197,0.0,2.0,73,0.00,,---,0.00,VWS V14.01,2013-05-15 00:37:00,
2013-05-14 19:42:00,70.3,61.2,30.10,SSW,197,0.0,2.0,73,0.00,,---,0.00,VWS V14.01,2013-05-15 00:42:00,
2013-05-14 19:47:00,69.9,61.2,30.10,SSW,197,0.0,2.0,74,0.00,,---,0.00,VWS V14.01,2013-05-15 00:47:00,
2013-05-14 19:52:00,69.5,61.2,30.10,SSW,197,0.0,2.0,75,0.00,,---,0.00,VWS V14.01,2013-05-15 00:52:00,
2013-05-14 19:57:00,68.9,61.0,30.10,SSW,197,0.0,2.0,76,0.00,,---,0.00,VWS V14.01,2013-05-15 00:57:00,
2013-05-14 20:02:00,68.4,60.9,30.11,SSW,197,0.0,0.0,77,0.00,,---,0.00,VWS V14.01,2013-05-15 01:02:00,
2013-05-14 20:07:00,67.9,60.8,30.11,SSW,197,0.0,0.0,78,0.00,,---,0.00,VWS V14.01,2013-05-15 01:07:00,
2013-05-14 20:12:00,67.5,60.4,30.11,SSW,197,0.0,0.0,78,0.00,,---,0.00,VWS V14.01,2013-05-15 01:12:00,
2013-05-14 20:17:00,67.2,60.5,30.11,SSW,197,0.0,0.0,79,0.00,,---,0.00,VWS V14.01,2013-05-15 01:17:00,
2013-05-14 20:22:00,66.8,60.4,30.11,SSW,197,0.0,0.0,80,0.00,,---,0.00,VWS V14.01,2013-05-15 01:22:00,
2013-05-14 20:27:00,66.5,60.2,30.11,SSW,197,0.0,0.0,80,0.00,,---,0.00,VWS V14.01,2013-05-15 01:27:00,
2013-05-14 20:32:00,66.2,60.2,30.11,SSW,197,0.0,0.0,81,0.00,,---,0.00,VWS V14.01,2013-05-15 01:32:00,
2013-05-14 20:37:00,66.0,60.0,30.11,SSW,197,0.0,2.0,81,0.00,,---,0.00,VWS V14.01,2013-05-15 01:37:00,
2013-05-14 20:42:00,65.8,60.2,30.11,SSW,197,0.0,2.0,82,0.00,,---,0.00,VWS V14.01,2013-05-15 01:42:00,
2013-05-14 20:47:00,65.7,60.1,30.11,SSW,197,0.0,2.0,82,0.00,,---,0.00,VWS V14.01,2013-05-15 01:47:00,
2013-05-14 20:52:00,65.7,60.1,30.11,SSW,197,0.0,2.0,82,0.00,,---,0.00,VWS V14.01,2013-05-15 01:52:00,
2013-05-14 20:57:00,65.6,60.0,30.11,SSW,197,0.0,2.0,82,0.00,,---,0.00,VWS V14.01,2013-05-15 01:57:00,
2013-05-14 21:02:00,65.5,59.9,30.12,SSW,197,1.0,1.0,82,0.00,,---,0.00,VWS V14.01,2013-05-15 02:02:00,
2013-05-14 21:07:00,65.4,60.1,30.12,SSW,197,0.0,1.0,83,0.00,,---,0.00,VWS V14.01,2013-05-15 02:07:00,
2013-05-14 21:11:00,65.3,60.0,30.12,SSW,197,0.0,1.0,83,0.00,,---,0.00,VWS V14.01,2013-05-15 02:11:00,
2013-05-14 21:17:00,65.2,60.2,30.12,SSW,197,0.0,1.0,84,0.00,,---,0.00,VWS V14.01,2013-05-15 02:17:00,
2013-05-14 21:21:00,65.1,60.2,30.12,SSW,197,0.0,1.0,84,0.00,,---,0.00,VWS V14.01,2013-05-15 02:21:00,
2013-05-14 21:26:00,64.9,60.0,30.12,SSW,197,0.0,1.0,84,0.00,,---,0.00,VWS V14.01,2013-05-15 02:26:00,
2013-05-14 21:32:00,64.7,59.8,30.12,SSW,197,0.0,0.0,84,0.00,,---,0.00,VWS V14.01,2013-05-15 02:32:00,
2013-05-14 21:36:00,64.5,59.6,30.12,SSW,197,0.0,0.0,84,0.00,,---,0.00,VWS V14.01,2013-05-15 02:36:00,
2013-05-14 21:42:00,64.3,59.7,30.12,SSW,197,0.0,0.0,85,0.00,,---,0.00,VWS V14.01,2013-05-15 02:42:00,
2013-05-14 21:46:00,64.1,59.5,30.12,SSW,197,0.0,0.0,85,0.00,,---,0.00,VWS V14.01,2013-05-15 02:46:00,
2013-05-14 21:51:00,63.9,59.6,30.12,SSW,197,0.0,0.0,86,0.00,,---,0.00,VWS V14.01,2013-05-15 02:51:00,
2013-05-14 21:56:00,63.7,59.4,30.12,SSW,197,0.0,1.0,86,0.00,,---,0.00,VWS V14.01,2013-05-15 02:56:00,
2013-05-14 22:01:00,63.6,59.7,30.12,SSW,197,0.0,0.0,87,0.00,,---,0.00,VWS V14.01,2013-05-15 03:01:00,
2013-05-14 22:06:00,63.5,59.6,30.12,SSW,197,0.0,0.0,87,0.00,,---,0.00,VWS V14.01,2013-05-15 03:06:00,
2013-05-14 22:11:00,63.4,59.5,30.12,SSW,197,0.0,2.0,87,0.00,,---,0.00,VWS V14.01,2013-05-15 03:11:00,
2013-05-14 22:16:00,63.4,59.8,30.12,SSW,197,0.0,2.0,88,0.00,,---,0.00,VWS V14.01,2013-05-15 03:16:00,
2013-05-14 22:21:00,63.4,59.8,30.12,SSW,197,0.0,2.0,88,0.00,,---,0.00,VWS V14.01,2013-05-15 03:21:00,
2013-05-14 22:26:00,63.4,59.8,30.12,SSW,197,0.0,2.0,88,0.00,,---,0.00,VWS V14.01,2013-05-15 03:26:00,
2013-05-14 22:31:00,63.3,59.7,30.12,SSW,197,0.0,0.0,88,0.00,,---,0.00,VWS V14.01,2013-05-15 03:31:00,
2013-05-14 22:36:00,63.3,59.7,30.12,SSW,197,0.0,0.0,88,0.00,,---,0.00,VWS V14.01,2013-05-15 03:36:00,
2013-05-14 22:41:00,63.2,59.6,30.11,SSW,197,0.0,0.0,88,0.00,,---,0.00,VWS V14.01,2013-05-15 03:41:00,
2013-05-14 22:46:00,63.1,59.5,30.11,SSW,197,0.0,0.0,88,0.00,,---,0.00,VWS V14.01,2013-05-15 03:46:00,
2013-05-14 22:51:00,63.0,59.7,30.11,SSW,197,0.0,0.0,89,0.00,,---,0.00,VWS V14.01,2013-05-15 03:51:00,
2013-05-14 22:56:00,62.9,59.6,30.11,SSW,197,0.0,0.0,89,0.00,,---,0.00,VWS V14.01,2013-05-15 03:56:00,
2013-05-14 23:01:00,62.8,59.5,30.11,SSW,197,0.0,0.0,89,0.00,,---,0.00,VWS V14.01,2013-05-15 04:01:00,
2013-05-14 23:06:00,62.7,59.4,30.11,SSW,197,0.0,0.0,89,0.00,,---,0.00,VWS V14.01,2013-05-15 04:06:00,
2013-05-14 23:11:00,62.7,59.7,30.11,SSW,197,0.0,0.0,90,0.00,,---,0.00,VWS V14.01,2013-05-15 04:11:00,
2013-05-14 23:16:00,62.6,59.6,30.11,SSW,197,0.0,0.0,90,0.00,,---,0.00,VWS V14.01,2013-05-15 04:16:00,
2013-05-14 23:21:00,62.5,59.5,30.11,SSW,197,0.0,0.0,90,0.00,,---,0.00,VWS V14.01,2013-05-15 04:21:00,
2013-05-14 23:26:00,62.4,59.4,30.12,SSW,197,0.0,0.0,90,0.00,,---,0.00,VWS V14.01,2013-05-15 04:26:00,
2013-05-14 23:31:00,62.3,59.3,30.12,SSW,197,0.0,0.0,90,0.00,,---,0.00,VWS V14.01,2013-05-15 04:31:00,
2013-05-14 23:36:00,62.3,59.6,30.11,SSW,197,0.0,1.0,91,0.00,,---,0.00,VWS V14.01,2013-05-15 04:36:00,
2013-05-14 23:41:00,62.2,59.5,30.11,SSW,197,0.0,1.0,91,0.00,,---,0.00,VWS V14.01,2013-05-15 04:41:00,
2013-05-14 23:46:00,62.2,59.5,30.11,SSW,197,0.0,1.0,91,0.00,,---,0.00,VWS V14.01,2013-05-15 04:46:00,
2013-05-14 23:51:00,62.1,59.5,30.11,SSW,197,0.0,1.0,91,0.00,,---,0.00,VWS V14.01,2013-05-15 04:51:00,
2013-05-14 23:56:00,62.1,59.5,30.11,SSW,197,0.0,1.0,91,0.00,,---,0.00,VWS V14.01,2013-05-15 04:56:00,